Tracking 32936 objects as of 16-Jan-2026
HD Live streaming from Space Station
objects crossing your sky now

STARLINK-11257

Track STARLINK-11257 now!
10-day predictions


NORAD ID: 61201
Int'l Code: 2024-171B
Perigee: 366.0 km
Apogee: 367.7 km
Inclination: 53.2 °
Period: 91.7 minutes
Semi major axis: 6737 km
RCS: Unknown
Launch date: September 20, 2024
Source: United States (US)
Launch site: AIR FORCE WESTERN TEST RANGE (AFWTR)
Your satellite tracking list
Your tracking list is empty




NASA's NSSDC Master Catalog

Two Line Element Set (TLE):
1 61201U 24171B   26015.37760171  .00000061  00000-0  53603-5 0  9990
2 61201  53.1594  79.2105 0001263  65.4028 294.7122 15.69717709 76024
Source of the keplerian elements: AFSPC